Location: Mercogliano
(40.9167°N, 14.7333°E)
Time: 14:23:03
(UTC+00:00)

Cosmos 1674 Rocket - Pass Details

Date: 18 September 2020
Orbit: 603 x 630 km, 82.5° (Epoch: 28 October)

Event Time Altitude Azimuth Distance (km) Brightness Sun altitude
Rises 17:29:52 0° 347° (NNW) 2,929 7.3 -5.6°
Reaches altitude 10° 17:32:08 10° 344° (NNW) 2,018 6.5 -6.0°
Maximum altitude 17:36:31 56° 266° (W) 751 4.5 -6.8°
Drops below altitude 10° 17:40:52 10° 188° (S) 2,000 6.2 -7.7°
Sets 17:43:06 0° 184° (S) 2,901 7.0 -8.1°
